Year,Month,Day,Hour,Minute,Value (Times are PST for temperature in C)
2020,05,27,00,00,11.30
2020,05,27,00,01,11.30
2020,05,27,00,02,11.30
2020,05,27,00,03,11.30
2020,05,27,00,04,11.20
2020,05,27,00,05,11.20
2020,05,27,00,06,11.20
2020,05,27,00,07,11.20
2020,05,27,00,08,11.20
2020,05,27,00,09,11.10
2020,05,27,00,10,11.10
2020,05,27,00,11,11.10
2020,05,27,00,12,11.10
2020,05,27,00,13,11.00
2020,05,27,00,14,11.00
2020,05,27,00,15,11.00
2020,05,27,00,16,10.90
2020,05,27,00,17,10.90
2020,05,27,00,18,10.90
2020,05,27,00,19,10.90
2020,05,27,00,20,10.90
2020,05,27,00,21,10.90
2020,05,27,00,22,10.90
2020,05,27,00,23,10.90
2020,05,27,00,24,10.90
2020,05,27,00,25,10.90
2020,05,27,00,26,10.80
2020,05,27,00,27,10.80
2020,05,27,00,28,10.80
2020,05,27,00,29,10.70
2020,05,27,00,30,10.70
2020,05,27,00,31,10.60
2020,05,27,00,32,10.60
2020,05,27,00,33,10.50
2020,05,27,00,34,10.40
2020,05,27,00,35,10.40
2020,05,27,00,36,10.40
2020,05,27,00,37,10.30
2020,05,27,00,38,10.30
2020,05,27,00,39,10.30
2020,05,27,00,40,10.20
2020,05,27,00,41,10.20
2020,05,27,00,42,10.20
2020,05,27,00,43,10.20
2020,05,27,00,44,10.10
2020,05,27,00,45,10.10
2020,05,27,00,46,10.10
2020,05,27,00,47,10.10
2020,05,27,00,48,10.10
2020,05,27,00,49,10.00
2020,05,27,00,50,10.00
2020,05,27,00,51,10.00
2020,05,27,00,52,10.00
2020,05,27,00,53,9.90
2020,05,27,00,54,9.90
2020,05,27,00,55,9.90
2020,05,27,00,56,9.90
2020,05,27,00,57,9.90
2020,05,27,00,58,9.80
2020,05,27,00,59,9.80
2020,05,27,01,00,9.80
2020,05,27,01,01,9.80
2020,05,27,01,02,9.70
2020,05,27,01,03,9.70
2020,05,27,01,04,9.70
2020,05,27,01,05,9.70
2020,05,27,01,06,9.70
2020,05,27,01,07,9.70
2020,05,27,01,08,9.70
2020,05,27,01,09,9.60
2020,05,27,01,10,9.60
2020,05,27,01,11,9.60
2020,05,27,01,12,9.60
2020,05,27,01,13,9.70
2020,05,27,01,14,9.70
2020,05,27,01,15,9.70
2020,05,27,01,16,9.70
2020,05,27,01,17,9.70
2020,05,27,01,18,9.70
2020,05,27,01,19,9.70
2020,05,27,01,20,9.70
2020,05,27,01,21,9.70
2020,05,27,01,22,9.70
2020,05,27,01,23,9.70
2020,05,27,01,24,9.70
2020,05,27,01,25,9.70
2020,05,27,01,26,9.70
2020,05,27,01,27,9.70
2020,05,27,01,28,9.60
2020,05,27,01,29,9.60
2020,05,27,01,30,9.60
2020,05,27,01,31,9.60
2020,05,27,01,32,9.50
2020,05,27,01,33,9.50
2020,05,27,01,34,9.50
2020,05,27,01,35,9.50
2020,05,27,01,36,9.40
2020,05,27,01,37,9.40
2020,05,27,01,38,9.40
2020,05,27,01,39,9.40
2020,05,27,01,40,9.30
2020,05,27,01,41,9.30
2020,05,27,01,42,9.30
2020,05,27,01,43,9.30
2020,05,27,01,44,9.30
2020,05,27,01,45,9.20
2020,05,27,01,46,9.20
2020,05,27,01,47,9.20
2020,05,27,01,48,9.20
2020,05,27,01,49,9.20
2020,05,27,01,50,9.20
2020,05,27,01,51,9.20
2020,05,27,01,52,9.20
2020,05,27,01,53,9.10
2020,05,27,01,54,9.10
2020,05,27,01,55,9.10
2020,05,27,01,56,9.10
2020,05,27,01,57,9.10
2020,05,27,01,58,9.10
2020,05,27,01,59,9.10
2020,05,27,02,00,9.00
2020,05,27,02,01,9.00
2020,05,27,02,02,9.00
2020,05,27,02,03,9.00
2020,05,27,02,04,9.00
2020,05,27,02,05,9.00
2020,05,27,02,06,9.00
2020,05,27,02,07,9.00
2020,05,27,02,08,9.00
2020,05,27,02,09,9.00
2020,05,27,02,10,9.00
2020,05,27,02,11,9.00
2020,05,27,02,12,9.00
2020,05,27,02,13,9.00
2020,05,27,02,14,8.90
2020,05,27,02,15,8.90
2020,05,27,02,16,8.90
2020,05,27,02,17,8.90
2020,05,27,02,18,8.90
2020,05,27,02,19,8.90
2020,05,27,02,20,8.90
2020,05,27,02,21,8.90
2020,05,27,02,22,8.90
2020,05,27,02,23,8.80
2020,05,27,02,24,8.80
2020,05,27,02,25,8.80
2020,05,27,02,26,8.80
2020,05,27,02,27,8.80
2020,05,27,02,28,8.80
2020,05,27,02,29,8.80
2020,05,27,02,30,8.80
2020,05,27,02,31,8.70
2020,05,27,02,32,8.70
2020,05,27,02,33,8.70
2020,05,27,02,34,8.70
2020,05,27,02,35,8.60
2020,05,27,02,36,8.60
2020,05,27,02,37,8.60
2020,05,27,02,38,8.60
2020,05,27,02,39,8.60
2020,05,27,02,40,8.50
2020,05,27,02,41,8.50
2020,05,27,02,42,8.50
2020,05,27,02,43,8.40
2020,05,27,02,44,8.40
2020,05,27,02,45,8.40
2020,05,27,02,46,8.40
2020,05,27,02,47,8.40
2020,05,27,02,48,8.40
2020,05,27,02,49,8.30
2020,05,27,02,50,8.30
2020,05,27,02,51,8.30
2020,05,27,02,52,8.30
2020,05,27,02,53,8.30
2020,05,27,02,54,8.20
2020,05,27,02,55,8.20
2020,05,27,02,56,8.20
2020,05,27,02,57,8.20
2020,05,27,02,58,8.20
2020,05,27,02,59,8.10
2020,05,27,03,00,8.10
2020,05,27,03,01,8.10
2020,05,27,03,02,8.10
2020,05,27,03,03,8.10
2020,05,27,03,04,8.00
2020,05,27,03,05,8.00
2020,05,27,03,06,8.00
2020,05,27,03,07,8.00
2020,05,27,03,08,7.90
2020,05,27,03,09,7.90
2020,05,27,03,10,7.90
2020,05,27,03,11,7.90
2020,05,27,03,12,7.90
2020,05,27,03,13,7.90
2020,05,27,03,14,7.80
2020,05,27,03,15,7.80
2020,05,27,03,16,7.80
2020,05,27,03,17,7.80
2020,05,27,03,18,7.80
2020,05,27,03,19,7.80
2020,05,27,03,20,7.80
2020,05,27,03,21,7.80
2020,05,27,03,22,7.80
2020,05,27,03,23,7.80
2020,05,27,03,24,7.80
2020,05,27,03,25,7.70
2020,05,27,03,26,7.70
2020,05,27,03,27,7.70
2020,05,27,03,28,7.70
2020,05,27,03,29,7.70
2020,05,27,03,30,7.60
2020,05,27,03,31,7.60
2020,05,27,03,32,7.60
2020,05,27,03,33,7.60
2020,05,27,03,34,7.60
2020,05,27,03,35,7.50
2020,05,27,03,36,7.50
2020,05,27,03,37,7.50
2020,05,27,03,38,7.50
2020,05,27,03,39,7.50
2020,05,27,03,40,7.50
2020,05,27,03,41,7.40
2020,05,27,03,42,7.40
2020,05,27,03,43,7.40
2020,05,27,03,44,7.40
2020,05,27,03,45,7.40
2020,05,27,03,46,7.40
2020,05,27,03,47,7.40
2020,05,27,03,48,7.40
2020,05,27,03,49,7.40
2020,05,27,03,50,7.30
2020,05,27,03,51,7.30
2020,05,27,03,52,7.30
2020,05,27,03,53,7.30
2020,05,27,03,54,7.30
2020,05,27,03,55,7.30
2020,05,27,03,56,7.30
2020,05,27,03,57,7.20
2020,05,27,03,58,7.20
2020,05,27,03,59,7.20
2020,05,27,04,00,7.20
2020,05,27,04,01,7.20
2020,05,27,04,02,7.20
2020,05,27,04,03,7.20
2020,05,27,04,04,7.20
2020,05,27,04,05,7.20
2020,05,27,04,06,7.20
2020,05,27,04,07,7.20
2020,05,27,04,08,7.20
2020,05,27,04,09,7.10
2020,05,27,04,10,7.10
2020,05,27,04,11,7.10
2020,05,27,04,12,7.10
2020,05,27,04,13,7.10
2020,05,27,04,14,7.10
2020,05,27,04,15,7.10
2020,05,27,04,16,7.10
2020,05,27,04,17,7.10
2020,05,27,04,18,7.10
2020,05,27,04,19,7.10
2020,05,27,04,20,7.10
2020,05,27,04,21,7.00
2020,05,27,04,22,7.00
2020,05,27,04,23,7.00
2020,05,27,04,24,7.00
2020,05,27,04,25,7.00
2020,05,27,04,26,6.90
2020,05,27,04,27,6.90
2020,05,27,04,28,6.90
2020,05,27,04,29,6.90
2020,05,27,04,30,6.90
2020,05,27,04,31,6.90
2020,05,27,04,32,6.90
2020,05,27,04,33,6.90
2020,05,27,04,34,6.90
2020,05,27,04,35,6.90
2020,05,27,04,36,6.80
2020,05,27,04,37,6.80
2020,05,27,04,38,6.80
2020,05,27,04,39,6.80
2020,05,27,04,40,6.80
2020,05,27,04,41,6.80
2020,05,27,04,42,6.80
2020,05,27,04,43,6.70
2020,05,27,04,44,6.70
2020,05,27,04,45,6.70
2020,05,27,04,46,6.70
2020,05,27,04,47,6.70
2020,05,27,04,48,6.70
2020,05,27,04,49,6.70
2020,05,27,04,50,6.70
2020,05,27,04,51,6.70
2020,05,27,04,52,6.70
2020,05,27,04,53,6.70
2020,05,27,04,54,6.70
2020,05,27,04,55,6.70
2020,05,27,04,56,6.70
2020,05,27,04,57,6.70
2020,05,27,04,58,6.70
2020,05,27,04,59,6.70
2020,05,27,05,00,6.70
2020,05,27,05,01,6.70
2020,05,27,05,02,6.70
2020,05,27,05,03,6.70
2020,05,27,05,04,6.70
2020,05,27,05,05,6.70
2020,05,27,05,06,6.70
2020,05,27,05,07,6.70
2020,05,27,05,08,6.70
2020,05,27,05,09,6.70
2020,05,27,05,10,6.70
2020,05,27,05,11,6.60
2020,05,27,05,12,6.60
2020,05,27,05,13,6.60
2020,05,27,05,14,6.60
2020,05,27,05,15,6.60
2020,05,27,05,16,6.60
2020,05,27,05,17,6.60
2020,05,27,05,18,6.60
2020,05,27,05,19,6.60
2020,05,27,05,20,6.60
2020,05,27,05,21,6.60
2020,05,27,05,22,6.60
2020,05,27,05,23,6.60
2020,05,27,05,24,6.60
2020,05,27,05,25,6.50
2020,05,27,05,26,6.50
2020,05,27,05,27,6.50
2020,05,27,05,28,6.50
2020,05,27,05,29,6.50
2020,05,27,05,30,6.50
2020,05,27,05,31,6.50
2020,05,27,05,32,6.50
2020,05,27,05,33,6.50
2020,05,27,05,34,6.50
2020,05,27,05,35,6.50
2020,05,27,05,36,6.40
2020,05,27,05,37,6.50
2020,05,27,05,38,6.50
2020,05,27,05,39,6.50
2020,05,27,05,40,6.50
2020,05,27,05,41,6.50
2020,05,27,05,42,6.50
2020,05,27,05,43,6.50
2020,05,27,05,44,6.50
2020,05,27,05,45,6.50
2020,05,27,05,46,6.50
2020,05,27,05,47,6.50
2020,05,27,05,48,6.50
2020,05,27,05,49,6.50
2020,05,27,05,50,6.50
2020,05,27,05,51,6.60
2020,05,27,05,52,6.60
2020,05,27,05,53,6.60
2020,05,27,05,54,6.60
2020,05,27,05,55,6.60
2020,05,27,05,56,6.70
2020,05,27,05,57,6.70
2020,05,27,05,58,6.70
2020,05,27,05,59,6.70
2020,05,27,06,00,6.70
2020,05,27,06,01,6.80
2020,05,27,06,02,6.80
2020,05,27,06,03,6.80
2020,05,27,06,04,6.80
2020,05,27,06,05,6.80
2020,05,27,06,06,6.80
2020,05,27,06,07,6.80
2020,05,27,06,08,6.80
2020,05,27,06,09,6.80
2020,05,27,06,10,6.80
2020,05,27,06,11,6.80
2020,05,27,06,12,6.80
2020,05,27,06,13,6.80
2020,05,27,06,14,6.80
2020,05,27,06,15,6.80
2020,05,27,06,16,6.80
2020,05,27,06,17,6.80
2020,05,27,06,18,6.80
2020,05,27,06,19,6.80
2020,05,27,06,20,6.80
2020,05,27,06,21,6.80
2020,05,27,06,22,6.90
2020,05,27,06,23,6.90
2020,05,27,06,24,6.90
2020,05,27,06,25,7.00
2020,05,27,06,26,7.00
2020,05,27,06,27,7.10
2020,05,27,06,28,7.10
2020,05,27,06,29,7.10
2020,05,27,06,30,7.20
2020,05,27,06,31,7.20
2020,05,27,06,32,7.30
2020,05,27,06,33,7.30
2020,05,27,06,34,7.30
2020,05,27,06,35,7.40
2020,05,27,06,36,7.40
2020,05,27,06,37,7.40
2020,05,27,06,38,7.50
2020,05,27,06,39,7.50
2020,05,27,06,40,7.60
2020,05,27,06,41,7.70
2020,05,27,06,42,7.70
2020,05,27,06,43,7.80
2020,05,27,06,44,7.90
2020,05,27,06,45,8.00
2020,05,27,06,46,8.10
2020,05,27,06,47,8.20
2020,05,27,06,48,8.20
2020,05,27,06,49,8.30
2020,05,27,06,50,8.30
2020,05,27,06,51,8.40
2020,05,27,06,52,8.50
2020,05,27,06,53,8.50
2020,05,27,06,54,8.50
2020,05,27,06,55,8.60
2020,05,27,06,56,8.60
2020,05,27,06,57,8.70
2020,05,27,06,58,8.80
2020,05,27,06,59,8.80
2020,05,27,07,00,8.90
2020,05,27,07,01,9.00
2020,05,27,07,02,9.10
2020,05,27,07,03,9.20
2020,05,27,07,04,9.20
2020,05,27,07,05,9.30
2020,05,27,07,06,9.40
2020,05,27,07,07,9.50
2020,05,27,07,08,9.50
2020,05,27,07,09,9.60
2020,05,27,07,10,9.70
2020,05,27,07,11,9.80
2020,05,27,07,12,9.90
2020,05,27,07,13,10.00
2020,05,27,07,14,10.00
2020,05,27,07,15,10.10
2020,05,27,07,16,10.20
2020,05,27,07,17,10.30
2020,05,27,07,18,10.30
2020,05,27,07,19,10.40
2020,05,27,07,20,10.50
2020,05,27,07,21,10.60
2020,05,27,07,22,10.70
2020,05,27,07,23,10.70
2020,05,27,07,24,10.80
2020,05,27,07,25,10.80
2020,05,27,07,26,10.90
2020,05,27,07,27,11.00
2020,05,27,07,28,11.10
2020,05,27,07,29,11.20
2020,05,27,07,30,11.20
2020,05,27,07,31,11.30
2020,05,27,07,32,11.30
2020,05,27,07,33,11.40
2020,05,27,07,34,11.40
2020,05,27,07,35,11.50
2020,05,27,07,36,11.50
2020,05,27,07,37,11.60
2020,05,27,07,38,11.70
2020,05,27,07,39,11.70
2020,05,27,07,40,11.70
2020,05,27,07,41,11.80
2020,05,27,07,42,11.80
2020,05,27,07,43,11.90
2020,05,27,07,44,11.90
2020,05,27,07,45,12.00
2020,05,27,07,46,12.00
2020,05,27,07,47,12.10
2020,05,27,07,48,12.10
2020,05,27,07,49,12.20
2020,05,27,07,50,12.20
2020,05,27,07,51,12.20
2020,05,27,07,52,12.20
2020,05,27,07,53,12.20
2020,05,27,07,54,12.30
2020,05,27,07,55,12.30
2020,05,27,07,56,12.30
2020,05,27,07,57,12.30
2020,05,27,07,58,12.30
2020,05,27,07,59,12.30
2020,05,27,08,00,12.40
2020,05,27,08,01,12.40
2020,05,27,08,02,12.50
2020,05,27,08,03,12.50
2020,05,27,08,04,12.60
2020,05,27,08,05,12.70
2020,05,27,08,06,12.70
2020,05,27,08,07,12.70
2020,05,27,08,08,12.70
2020,05,27,08,09,12.80
2020,05,27,08,10,12.80
2020,05,27,08,11,12.80
2020,05,27,08,12,12.80
2020,05,27,08,13,12.80
2020,05,27,08,14,12.80
2020,05,27,08,15,12.80
2020,05,27,08,16,12.80
2020,05,27,08,17,12.80
2020,05,27,08,18,12.80
2020,05,27,08,19,12.70
2020,05,27,08,20,12.70
2020,05,27,08,21,12.80
2020,05,27,08,22,12.90
2020,05,27,08,23,12.90
2020,05,27,08,24,13.00
2020,05,27,08,25,13.00
2020,05,27,08,26,13.00
2020,05,27,08,27,13.10
2020,05,27,08,28,13.10
2020,05,27,08,29,13.00
2020,05,27,08,30,13.00
2020,05,27,08,31,13.00
2020,05,27,08,32,13.00
2020,05,27,08,33,13.10
2020,05,27,08,34,13.10
2020,05,27,08,35,13.10
2020,05,27,08,36,13.20
2020,05,27,08,37,13.20
2020,05,27,08,38,13.20
2020,05,27,08,39,13.30
2020,05,27,08,40,13.30
2020,05,27,08,41,13.30
2020,05,27,08,42,13.30
2020,05,27,08,43,13.30
2020,05,27,08,44,13.40
2020,05,27,08,45,13.50
2020,05,27,08,46,13.50
2020,05,27,08,47,13.60
2020,05,27,08,48,13.60
2020,05,27,08,49,13.60
2020,05,27,08,50,13.60
2020,05,27,08,51,13.70
2020,05,27,08,52,13.70
2020,05,27,08,53,13.70
2020,05,27,08,54,13.70
2020,05,27,08,55,13.80
2020,05,27,08,56,13.80
2020,05,27,08,57,13.80
2020,05,27,08,58,13.80
2020,05,27,08,59,13.90
2020,05,27,09,00,13.90
2020,05,27,09,01,14.00
2020,05,27,09,02,14.00
2020,05,27,09,03,14.10
2020,05,27,09,04,14.10
2020,05,27,09,05,14.10
2020,05,27,09,06,14.20
2020,05,27,09,07,14.20
2020,05,27,09,08,14.20
2020,05,27,09,09,14.20
2020,05,27,09,10,14.20
2020,05,27,09,11,14.20
2020,05,27,09,12,14.20
2020,05,27,09,13,14.20
2020,05,27,09,14,14.20
2020,05,27,09,15,14.30
2020,05,27,09,16,14.30
2020,05,27,09,17,14.30
2020,05,27,09,18,14.20
2020,05,27,09,19,14.20
2020,05,27,09,20,14.20
2020,05,27,09,21,14.30
2020,05,27,09,22,14.30
2020,05,27,09,23,14.40
2020,05,27,09,24,14.40
2020,05,27,09,25,14.40
2020,05,27,09,26,14.40
2020,05,27,09,27,14.40
2020,05,27,09,28,14.40
2020,05,27,09,29,14.30
2020,05,27,09,30,14.20
2020,05,27,09,31,14.20
2020,05,27,09,32,14.20
2020,05,27,09,33,14.20
2020,05,27,09,34,14.20
2020,05,27,09,35,14.20
2020,05,27,09,36,14.20
2020,05,27,09,37,14.30
2020,05,27,09,38,14.30
2020,05,27,09,39,14.30
2020,05,27,09,40,14.30
2020,05,27,09,41,14.30
2020,05,27,09,42,14.30
2020,05,27,09,43,14.30
2020,05,27,09,44,14.30
2020,05,27,09,45,14.30
2020,05,27,09,46,14.20
2020,05,27,09,47,14.20
2020,05,27,09,48,14.20
2020,05,27,09,49,14.20
2020,05,27,09,50,14.20
2020,05,27,09,51,14.20
2020,05,27,09,52,14.30
2020,05,27,09,53,14.30
2020,05,27,09,54,14.30
2020,05,27,09,55,14.30
2020,05,27,09,56,14.40
2020,05,27,09,57,14.50
2020,05,27,09,58,14.50
2020,05,27,09,59,14.60
2020,05,27,10,00,14.60
2020,05,27,10,01,14.70
2020,05,27,10,02,14.70
2020,05,27,10,03,14.80
2020,05,27,10,04,14.80
2020,05,27,10,05,14.80
2020,05,27,10,06,14.90
2020,05,27,10,07,14.90
2020,05,27,10,08,15.00
2020,05,27,10,09,15.10
2020,05,27,10,10,15.20
2020,05,27,10,11,15.30
2020,05,27,10,12,15.40
2020,05,27,10,13,15.50
2020,05,27,10,14,15.60
2020,05,27,10,15,15.60
2020,05,27,10,16,15.70
2020,05,27,10,17,15.80
2020,05,27,10,18,15.80
2020,05,27,10,19,15.90
2020,05,27,10,20,15.90
2020,05,27,10,21,15.90
2020,05,27,10,22,15.90
2020,05,27,10,23,15.90
2020,05,27,10,24,16.00
2020,05,27,10,25,16.10
2020,05,27,10,26,16.10
2020,05,27,10,27,16.10
2020,05,27,10,28,16.00
2020,05,27,10,29,15.90
2020,05,27,10,30,15.90
2020,05,27,10,31,15.90
2020,05,27,10,32,15.90
2020,05,27,10,33,15.90
2020,05,27,10,34,15.90
2020,05,27,10,35,15.90
2020,05,27,10,36,16.00
2020,05,27,10,37,16.00
2020,05,27,10,38,15.90
2020,05,27,10,39,15.90
2020,05,27,10,40,15.90
2020,05,27,10,41,15.90
2020,05,27,10,42,15.90
2020,05,27,10,43,15.90
2020,05,27,10,44,15.90
2020,05,27,10,45,15.90
2020,05,27,10,46,15.90
2020,05,27,10,47,15.90
2020,05,27,10,48,15.90
2020,05,27,10,49,15.90
2020,05,27,10,50,16.00
2020,05,27,10,51,16.00
2020,05,27,10,52,16.10
2020,05,27,10,53,16.20
2020,05,27,10,54,16.20
2020,05,27,10,55,16.20
2020,05,27,10,56,16.20
2020,05,27,10,57,16.20
2020,05,27,10,58,16.20
2020,05,27,10,59,16.30
2020,05,27,11,00,16.30
2020,05,27,11,01,16.30
2020,05,27,11,02,16.30
2020,05,27,11,03,16.40
2020,05,27,11,04,16.40
2020,05,27,11,05,16.40
2020,05,27,11,06,16.40
2020,05,27,11,07,16.50
2020,05,27,11,08,16.50
2020,05,27,11,09,16.50
2020,05,27,11,10,16.50
2020,05,27,11,11,16.60
2020,05,27,11,12,16.60
2020,05,27,11,13,16.60
2020,05,27,11,14,16.70
2020,05,27,11,15,16.70
2020,05,27,11,16,16.70
2020,05,27,11,17,16.70
2020,05,27,11,18,16.60
2020,05,27,11,19,16.60
2020,05,27,11,20,16.60
2020,05,27,11,21,16.60
2020,05,27,11,22,16.70
2020,05,27,11,23,16.70
2020,05,27,11,24,16.70
2020,05,27,11,25,16.80
2020,05,27,11,26,16.80
2020,05,27,11,27,16.80
2020,05,27,11,28,16.70
2020,05,27,11,29,16.70
2020,05,27,11,30,16.60
2020,05,27,11,31,16.60
2020,05,27,11,32,16.50
2020,05,27,11,33,16.40
2020,05,27,11,34,16.40
2020,05,27,11,35,16.40
2020,05,27,11,36,16.50
2020,05,27,11,37,16.50
2020,05,27,11,38,16.50
2020,05,27,11,39,16.50
2020,05,27,11,40,16.50
2020,05,27,11,41,16.60
2020,05,27,11,42,16.60
2020,05,27,11,43,16.70
2020,05,27,11,44,16.70
2020,05,27,11,45,16.80
2020,05,27,11,46,16.90
2020,05,27,11,47,16.90
2020,05,27,11,48,17.00
2020,05,27,11,49,17.10
2020,05,27,11,50,17.10
2020,05,27,11,51,17.00
2020,05,27,11,52,17.00
2020,05,27,11,53,16.90
2020,05,27,11,54,16.90
2020,05,27,11,55,16.80
2020,05,27,11,56,16.80
2020,05,27,11,57,16.80
2020,05,27,11,58,16.80
2020,05,27,11,59,16.80
2020,05,27,12,00,16.80
2020,05,27,12,01,16.80
2020,05,27,12,02,16.90
2020,05,27,12,03,16.90
2020,05,27,12,04,16.90
2020,05,27,12,05,16.90
2020,05,27,12,06,17.00
2020,05,27,12,07,17.10
2020,05,27,12,08,17.10
2020,05,27,12,09,17.10
2020,05,27,12,10,17.10
2020,05,27,12,11,17.10
2020,05,27,12,12,17.10
2020,05,27,12,13,17.00
2020,05,27,12,14,17.00
2020,05,27,12,15,16.90
2020,05,27,12,16,17.00
2020,05,27,12,17,17.00
2020,05,27,12,18,17.10
2020,05,27,12,19,17.10
2020,05,27,12,20,17.20
2020,05,27,12,21,17.20
2020,05,27,12,22,17.20
2020,05,27,12,23,17.20
2020,05,27,12,24,17.20
2020,05,27,12,25,17.20
2020,05,27,12,26,17.30
2020,05,27,12,27,17.40
2020,05,27,12,28,17.40
2020,05,27,12,29,17.40
2020,05,27,12,30,17.40
2020,05,27,12,31,17.40
2020,05,27,12,32,17.40
2020,05,27,12,33,17.40
2020,05,27,12,34,17.30
2020,05,27,12,35,17.40
2020,05,27,12,36,17.40
2020,05,27,12,37,17.60
2020,05,27,12,38,17.70
2020,05,27,12,39,17.80
2020,05,27,12,40,17.80
2020,05,27,12,41,17.90
2020,05,27,12,42,17.90
2020,05,27,12,43,18.00
2020,05,27,12,44,18.00
2020,05,27,12,45,18.00
2020,05,27,12,46,17.90
2020,05,27,12,47,17.90
2020,05,27,12,48,17.90
2020,05,27,12,49,17.90
2020,05,27,12,50,17.90
2020,05,27,12,51,17.90
2020,05,27,12,52,17.90
2020,05,27,12,53,17.90
2020,05,27,12,54,17.90
2020,05,27,12,55,17.80
2020,05,27,12,56,17.80
2020,05,27,12,57,17.80
2020,05,27,12,58,17.90
2020,05,27,12,59,17.80
2020,05,27,13,00,17.80
2020,05,27,13,01,17.80
2020,05,27,13,02,17.90
2020,05,27,13,03,17.90
2020,05,27,13,04,17.90
2020,05,27,13,05,17.90
2020,05,27,13,06,17.90
2020,05,27,13,07,17.90
2020,05,27,13,08,17.90
2020,05,27,13,09,18.00
2020,05,27,13,10,18.00
2020,05,27,13,11,18.10
2020,05,27,13,12,18.10
2020,05,27,13,13,18.20
2020,05,27,13,14,18.20
2020,05,27,13,15,18.20
2020,05,27,13,16,18.30
2020,05,27,13,17,18.30
2020,05,27,13,18,18.40
2020,05,27,13,19,18.40
2020,05,27,13,20,18.40
2020,05,27,13,21,18.50
2020,05,27,13,22,18.50
2020,05,27,13,23,18.40
2020,05,27,13,24,18.40
2020,05,27,13,25,18.40
2020,05,27,13,26,18.40
2020,05,27,13,27,18.40
2020,05,27,13,28,18.40
2020,05,27,13,29,18.40
2020,05,27,13,30,18.40
2020,05,27,13,31,18.40
2020,05,27,13,32,18.30
2020,05,27,13,33,18.30
2020,05,27,13,34,18.30
2020,05,27,13,35,18.30
2020,05,27,13,36,18.40
2020,05,27,13,37,18.40
2020,05,27,13,38,18.50
2020,05,27,13,39,18.60
2020,05,27,13,40,18.60
2020,05,27,13,41,18.70
2020,05,27,13,42,18.70
2020,05,27,13,43,18.80
2020,05,27,13,44,18.80
2020,05,27,13,45,18.80
2020,05,27,13,46,18.80
2020,05,27,13,47,18.80
2020,05,27,13,48,18.80
2020,05,27,13,49,18.80
2020,05,27,13,50,18.90
2020,05,27,13,51,18.90
2020,05,27,13,52,19.00
2020,05,27,13,53,19.10
2020,05,27,13,54,19.10
2020,05,27,13,55,19.20
2020,05,27,13,56,19.30
2020,05,27,13,57,19.30
2020,05,27,13,58,19.40
2020,05,27,13,59,19.40
2020,05,27,14,00,19.40
2020,05,27,14,01,19.30
2020,05,27,14,02,19.30
2020,05,27,14,03,19.30
2020,05,27,14,04,19.30
2020,05,27,14,05,19.30
2020,05,27,14,06,19.30
2020,05,27,14,07,19.40
2020,05,27,14,08,19.40
2020,05,27,14,09,19.50
2020,05,27,14,10,19.60
2020,05,27,14,11,19.60
2020,05,27,14,12,19.60
2020,05,27,14,13,19.70
2020,05,27,14,14,19.70
2020,05,27,14,15,19.80
2020,05,27,14,16,19.80
2020,05,27,14,17,19.80
2020,05,27,14,18,19.80
2020,05,27,14,19,19.70
2020,05,27,14,20,19.70
2020,05,27,14,21,19.60
2020,05,27,14,22,19.60
2020,05,27,14,23,19.50
2020,05,27,14,24,19.50
2020,05,27,14,25,19.50
2020,05,27,14,26,19.40
2020,05,27,14,27,19.40
2020,05,27,14,28,19.40
2020,05,27,14,29,19.40
2020,05,27,14,30,19.40
2020,05,27,14,31,19.40
2020,05,27,14,32,19.50
2020,05,27,14,33,19.50
2020,05,27,14,34,19.60
2020,05,27,14,35,19.60
2020,05,27,14,36,19.60
2020,05,27,14,37,19.70
2020,05,27,14,38,19.70
2020,05,27,14,39,19.70
2020,05,27,14,40,19.80
2020,05,27,14,41,19.80
2020,05,27,14,42,19.80
2020,05,27,14,43,19.80
2020,05,27,14,44,19.90
2020,05,27,14,45,20.00
2020,05,27,14,46,20.10
2020,05,27,14,47,20.20
2020,05,27,14,48,20.20
2020,05,27,14,49,20.30
2020,05,27,14,50,20.30
2020,05,27,14,51,20.20
2020,05,27,14,52,20.30
2020,05,27,14,53,20.30
2020,05,27,14,54,20.30
2020,05,27,14,55,20.30
2020,05,27,14,56,20.30
2020,05,27,14,57,20.30
2020,05,27,14,58,20.30
2020,05,27,14,59,20.30
2020,05,27,15,00,20.30
2020,05,27,15,01,20.30
2020,05,27,15,02,20.30
2020,05,27,15,03,20.30
2020,05,27,15,04,20.30
2020,05,27,15,05,20.30
2020,05,27,15,06,20.30
2020,05,27,15,07,20.20
2020,05,27,15,08,20.20
2020,05,27,15,09,20.20
2020,05,27,15,10,20.30
2020,05,27,15,11,20.30
2020,05,27,15,12,20.40
2020,05,27,15,13,20.40
2020,05,27,15,14,20.30
2020,05,27,15,15,20.20
2020,05,27,15,16,20.20
2020,05,27,15,17,20.20
2020,05,27,15,18,20.20
2020,05,27,15,19,20.10
2020,05,27,15,20,20.00
2020,05,27,15,21,20.00
2020,05,27,15,22,19.90
2020,05,27,15,23,19.90
2020,05,27,15,24,19.80
2020,05,27,15,25,19.80
2020,05,27,15,26,19.90
2020,05,27,15,27,19.90
2020,05,27,15,28,19.90
2020,05,27,15,29,19.90
2020,05,27,15,30,19.90
2020,05,27,15,31,19.90
2020,05,27,15,32,19.90
2020,05,27,15,33,20.00
2020,05,27,15,34,20.00
2020,05,27,15,35,20.00
2020,05,27,15,36,20.00
2020,05,27,15,37,20.00
2020,05,27,15,38,20.00
2020,05,27,15,39,20.00
2020,05,27,15,40,20.00
2020,05,27,15,41,19.90
2020,05,27,15,42,19.90
2020,05,27,15,43,19.80
2020,05,27,15,44,19.80
2020,05,27,15,45,19.80
2020,05,27,15,46,19.80
2020,05,27,15,47,19.90
2020,05,27,15,48,19.90
2020,05,27,15,49,19.90
2020,05,27,15,50,19.90
2020,05,27,15,51,19.90
2020,05,27,15,52,19.90
2020,05,27,15,53,19.90
2020,05,27,15,54,19.90
2020,05,27,15,55,19.90
2020,05,27,15,56,19.90
2020,05,27,15,57,19.90
2020,05,27,15,58,19.90
2020,05,27,15,59,19.80
2020,05,27,16,00,19.80
2020,05,27,16,01,19.80
2020,05,27,16,02,19.80
2020,05,27,16,03,19.80
2020,05,27,16,04,19.80
2020,05,27,16,05,19.80
2020,05,27,16,06,19.80
2020,05,27,16,07,19.70
2020,05,27,16,08,19.70
2020,05,27,16,09,19.70
2020,05,27,16,10,19.70
2020,05,27,16,11,19.80
2020,05,27,16,12,19.80
2020,05,27,16,13,19.80
2020,05,27,16,14,19.80
2020,05,27,16,15,19.80
2020,05,27,16,16,19.90
2020,05,27,16,17,19.90
2020,05,27,16,18,19.90
2020,05,27,16,19,19.90
2020,05,27,16,20,20.00
2020,05,27,16,21,20.10
2020,05,27,16,22,20.10
2020,05,27,16,23,20.20
2020,05,27,16,24,20.20
2020,05,27,16,25,20.20
2020,05,27,16,26,20.30
2020,05,27,16,27,20.40
2020,05,27,16,28,20.50
2020,05,27,16,29,20.60
2020,05,27,16,30,20.70
2020,05,27,16,31,20.80
2020,05,27,16,32,20.80
2020,05,27,16,33,20.90
2020,05,27,16,34,20.90
2020,05,27,16,35,21.00
2020,05,27,16,36,21.10
2020,05,27,16,37,21.10
2020,05,27,16,38,21.20
2020,05,27,16,39,21.20
2020,05,27,16,40,21.30
2020,05,27,16,41,21.30
2020,05,27,16,42,21.30
2020,05,27,16,43,21.20
2020,05,27,16,44,21.20
2020,05,27,16,45,21.20
2020,05,27,16,46,21.10
2020,05,27,16,47,21.10
2020,05,27,16,48,21.10
2020,05,27,16,49,21.10
2020,05,27,16,50,21.10
2020,05,27,16,51,21.10
2020,05,27,16,52,21.20
2020,05,27,16,53,21.20
2020,05,27,16,54,21.20
2020,05,27,16,55,21.10
2020,05,27,16,56,21.10
2020,05,27,16,57,21.10
2020,05,27,16,58,21.10
2020,05,27,16,59,21.10
2020,05,27,17,00,21.10
2020,05,27,17,01,21.10
2020,05,27,17,02,21.10
2020,05,27,17,03,21.10
2020,05,27,17,04,21.10
2020,05,27,17,05,21.10
2020,05,27,17,06,21.10
2020,05,27,17,07,21.10
2020,05,27,17,08,21.20
2020,05,27,17,09,21.20
2020,05,27,17,10,21.20
2020,05,27,17,11,21.20
2020,05,27,17,12,21.20
2020,05,27,17,13,21.20
2020,05,27,17,14,21.20
2020,05,27,17,15,21.20
2020,05,27,17,16,21.20
2020,05,27,17,17,21.20
2020,05,27,17,18,21.30
2020,05,27,17,19,21.30
2020,05,27,17,20,21.40
2020,05,27,17,21,21.40
2020,05,27,17,22,21.50
2020,05,27,17,23,21.60
2020,05,27,17,24,21.60
2020,05,27,17,25,21.70
2020,05,27,17,26,21.80
2020,05,27,17,27,21.80
2020,05,27,17,28,21.80
2020,05,27,17,29,21.90
2020,05,27,17,30,21.90
2020,05,27,17,31,21.90
2020,05,27,17,32,22.00
2020,05,27,17,33,22.00
2020,05,27,17,34,22.00
2020,05,27,17,35,22.00